2023-054AG (56208 NORAD) Tracking and Keplerian Element Data

This shows tracking and keplerian element data for the satellite.

Feedback or suggestion? Click here.




ElementValue
Catalog56208
Name2023-054AG
Epoch Orbit393
Epoch Day127.14001041
Epoch Year2023
RAAN22.6675
Inclination97.4014
Eccentricity0.0014398
Argument of Perigee142.6404
Mean Anonmoly217.5837
Mean Motion15.23101982
Decay Rate0.00011943
L11 56208U 23054AG 23127.14001041 .00011943 00000+0 50754-3 0 9992
L22 56208 97.4014 22.6675 0014398 142.6404 217.5837 15.23101982 3932



Live tracking and technical data element details for 2023-054AG (NORAD 56208). 2023-054AG can be tracked NOW for your location showing map with azimuth and elevation plus other details from your city location.







IsCatalogInMostPopularTable: catalog: 56208, numindb: 9
Update: records affected: 1



GetName: 56208 2023-054AG

Hit Count: updated at: Wed, 07 Jun 2023 09:53:19 GMT